Cadillac, MI

5:46 AM EDT on March 23, 2017 (GMT -0400)
Wexford County

Weather History for KCAD - August, 2014

Change the Weather History Date:

Saturday, August 16, 2014

  Actual Average Record
Temperature  
Mean Temperature 60 °F -  
Max Temperature 67 °F 77 °F 92 °F (1955)
Min Temperature 53 °F 53 °F 30 °F (1979)
Degree Days  
Heating Degree Days 5    
Growing Degree Days 10 (Base 50)    
Moisture  
Dew Point 59 °F    
Average Humidity 94    
Maximum Humidity 100    
Minimum Humidity 83    
Precipitation  
Precipitation 0.00 in - - ()
Sea Level Pressure  
Sea Level Pressure 29.88 in    
Wind  
Wind Speed 7 mph (WSW)    
Max Wind Speed 15 mph    
Max Gust Speed 24 mph    
Visibility 9 miles    
Events Rain    
Averages and records for this station are not official NWS values.
T = Trace of Precipitation, MM = Missing Value Source: NWS Daily Summary

Daily Weather History Graph

Daily Weather History Graph

Search for Another Location

Airport or City:

Trip Planner

Search our weather history database for the weather conditions in past years. The results will help you decide how hot, cold, wet, or windy it might be!

Date:

Astronomy

Aug. 16, 2014 Rise Set
Actual Time 6:46 AM EDT 8:44 PM EDT
Civil Twilight 6:14 AM EDT 9:16 PM EDT
Nautical Twilight 5:36 AM EDT 9:54 PM EDT
Astronomical Twilight 4:53 AM EDT 10:36 PM EDT
Moon No Moon Rise 1:47 PM EDT (8/16)
Length of Visible Light 15h 01m
Length of Day
13h 58m
Waning Gibbous, 59% of the Moon is Illuminated
Aug 16
Waning Gibbous
Aug 17
Last Quarter
Aug 25
New
Sep 2
First Quarter
Sep 8
Full

Hourly Weather History & Observations

Time (EDT) Temp. Dew Point Humidity Pressure Visibility Wind Dir Wind Speed Gust Speed Precip Events Conditions
12:15 AM 54.7 °F 50.5 °F 86% 29.94 in 10.0 mi SW 6.9 mph - N/A   Clear
12:35 AM 54.7 °F 50.2 °F 85% 29.94 in 10.0 mi SW 4.6 mph - N/A   Clear
1:14 AM 55.0 °F 50.2 °F 84% 29.92 in 10.0 mi SW 8.1 mph - N/A   Clear
1:34 AM 55.0 °F 50.0 °F 83% 29.91 in 10.0 mi SW 8.1 mph - N/A   Clear
1:54 AM 54.7 °F 50.0 °F 84% 29.90 in 10.0 mi SSW 8.1 mph - N/A   Clear
2:14 AM 54.3 °F 49.6 °F 84% 29.90 in 10.0 mi SW 5.8 mph - N/A   Clear
2:34 AM 53.8 °F 50.0 °F 87% 29.89 in 10.0 mi SSW 5.8 mph - N/A   Clear
2:54 AM 53.6 °F 49.6 °F 86% 29.89 in 10.0 mi SW 3.5 mph - N/A   Clear
3:14 AM 53.1 °F 49.8 °F 89% 29.89 in 10.0 mi SSW 4.6 mph - N/A   Clear
3:35 AM 53.1 °F 50.0 °F 89% 29.88 in 10.0 mi SSW 4.6 mph - N/A   Clear
3:55 AM 53.6 °F 50.2 °F 88% 29.88 in 10.0 mi SW 4.6 mph - N/A   Clear
4:14 AM 53.6 °F 50.5 °F 89% 29.88 in 10.0 mi SW 5.8 mph - N/A   Clear
4:34 AM 54.1 °F 51.3 °F 90% 29.88 in 10.0 mi SW 3.5 mph - N/A   Scattered Clouds
4:54 AM 53.8 °F 51.8 °F 93% 29.88 in 10.0 mi Calm Calm - N/A   Scattered Clouds
5:15 AM 53.8 °F 52.2 °F 94% 29.87 in 10.0 mi SW 4.6 mph - N/A   Clear
5:34 AM 54.5 °F 53.2 °F 96% 29.86 in 10.0 mi SW 4.6 mph - N/A   Clear
5:54 AM 55.4 °F 54.5 °F 97% 29.85 in 10.0 mi SW 5.8 mph - N/A   Clear
6:15 AM 55.8 °F 55.4 °F 99% 29.85 in 10.0 mi WSW 4.6 mph - N/A   Clear
6:35 AM 55.9 °F 55.8 °F 99% 29.85 in 10.0 mi SW 6.9 mph - N/A   Clear
6:55 AM 57.9 °F 57.2 °F 97% 29.84 in 10.0 mi SW 10.4 mph - N/A   Scattered Clouds
7:14 AM 58.6 °F 58.1 °F 98% 29.85 in 10.0 mi SW 9.2 mph - N/A   Mostly Cloudy
7:34 AM 59.7 °F 59.0 °F 97% 29.84 in 10.0 mi WSW 11.5 mph 16.1 mph N/A   Overcast
7:54 AM 60.6 °F 59.5 °F 96% 29.85 in 10.0 mi SW 10.4 mph - N/A   Overcast
8:14 AM 61.0 °F 60.1 °F 97% 29.84 in 10.0 mi SW 12.7 mph - N/A   Overcast
8:34 AM 61.9 °F 60.6 °F 96% 29.84 in 10.0 mi WSW 12.7 mph 21.9 mph N/A   Overcast
8:55 AM 62.8 °F 61.2 °F 94% 29.84 in 10.0 mi SW 15.0 mph 20.7 mph N/A   Overcast
9:14 AM 63.0 °F 61.2 °F 94% 29.84 in 10.0 mi SW 13.8 mph 17.3 mph N/A   Overcast
9:35 AM 65.1 °F 62.1 °F 90% 29.84 in 10.0 mi SW 12.7 mph 19.6 mph N/A   Mostly Cloudy
9:54 AM 67.6 °F 63.0 °F 85% 29.83 in 10.0 mi WSW 15.0 mph 24.2 mph N/A   Mostly Cloudy
10:14 AM 66.7 °F 62.1 °F 85% 29.84 in 10.0 mi WSW 13.8 mph 20.7 mph N/A   Mostly Cloudy
10:35 AM 66.4 °F 62.4 °F 87% 29.85 in 10.0 mi WSW 12.7 mph 18.4 mph N/A Rain Light Rain
10:55 AM 64.9 °F 63.1 °F 94% 29.86 in 10.0 mi WSW 9.2 mph - N/A Rain Rain
11:14 AM 64.6 °F 63.3 °F 96% 29.86 in 10.0 mi WSW 9.2 mph - N/A Rain Light Rain
11:34 AM 63.7 °F 62.6 °F 96% 29.85 in 7.0 mi WSW 10.4 mph 18.4 mph N/A Rain Rain
11:55 AM 64.4 °F 64.0 °F 99% 29.84 in 7.0 mi SW 12.7 mph - N/A Rain Light Rain
12:14 PM 64.0 °F 63.7 °F 99% 29.85 in 5.0 mi SW 10.4 mph - N/A Rain Light Rain
12:34 PM 64.6 °F 63.9 °F 98% 29.85 in 10.0 mi WSW 8.1 mph - N/A   Light Drizzle
12:54 PM 64.0 °F 63.5 °F 98% 29.85 in 5.0 mi WSW 6.9 mph - N/A Rain Heavy Rain
1:15 PM 65.1 °F 64.8 °F 99% 29.85 in 10.0 mi WSW 8.1 mph - N/A   Overcast
1:34 PM 64.8 °F 64.4 °F 99% 29.86 in 4.0 mi West 8.1 mph - N/A   Overcast
1:55 PM 64.9 °F 64.9 °F 100% 29.86 in 1.5 mi West 8.1 mph - N/A Rain Rain
2:14 PM 65.1 °F 65.1 °F 100% 29.87 in 1.5 mi West 8.1 mph 16.1 mph N/A   Drizzle
2:34 PM 65.3 °F 65.3 °F 100% 29.87 in 1.2 mi West 9.2 mph - N/A Rain Rain
2:54 PM 65.3 °F 65.3 °F 100% 29.87 in 1.5 mi West 8.1 mph - N/A   Drizzle
3:15 PM 65.5 °F 65.5 °F 100% 29.87 in 1.2 mi WNW 5.8 mph - N/A   Drizzle
3:34 PM 66.4 °F 66.0 °F 99% 29.87 in 1.5 mi WNW 6.9 mph - N/A   Drizzle
3:55 PM 67.1 °F 66.0 °F 96% 29.87 in 7.0 mi WNW 5.8 mph - N/A   Overcast
4:14 PM 67.3 °F 66.2 °F 96% 29.87 in 10.0 mi West 5.8 mph - N/A   Overcast
4:34 PM 67.3 °F 66.2 °F 96% 29.87 in 10.0 mi WNW 5.8 mph - N/A   Overcast
4:54 PM 67.1 °F 66.2 °F 97% 29.88 in 10.0 mi West 5.8 mph - N/A   Overcast
5:14 PM 67.1 °F 65.7 °F 95% 29.88 in 10.0 mi West 4.6 mph - N/A   Overcast
5:35 PM 67.1 °F 65.3 °F 94% 29.89 in 10.0 mi NW 5.8 mph - N/A   Overcast
5:54 PM 66.6 °F 65.1 °F 95% 29.89 in 10.0 mi WNW 4.6 mph - N/A   Overcast
6:14 PM 65.8 °F 64.6 °F 96% 29.89 in 10.0 mi WNW 5.8 mph - N/A   Overcast
6:34 PM 65.8 °F 64.8 °F 96% 29.90 in 10.0 mi NW 5.8 mph - N/A   Overcast
6:54 PM 66.0 °F 64.4 °F 94% 29.90 in 10.0 mi WNW 5.8 mph - N/A   Overcast
7:14 PM 66.0 °F 64.4 °F 94% 29.90 in 10.0 mi NW 3.5 mph - N/A   Overcast
7:34 PM 64.6 °F 62.2 °F 92% 29.91 in 10.0 mi North 3.5 mph - N/A   Mostly Cloudy
7:54 PM 63.9 °F 61.7 °F 93% 29.91 in 10.0 mi North 3.5 mph - N/A   Scattered Clouds
8:14 PM 63.1 °F 60.4 °F 91% 29.92 in 10.0 mi NNW 4.6 mph - N/A   Clear
8:35 PM 61.7 °F 59.9 °F 94% 29.93 in 10.0 mi Calm Calm - N/A   Scattered Clouds
8:54 PM 60.6 °F 59.5 °F 96% 29.93 in 10.0 mi North 4.6 mph - N/A   Scattered Clouds
9:14 PM 60.3 °F 59.0 °F 96% 29.94 in 10.0 mi North 4.6 mph - N/A   Scattered Clouds
9:35 PM 59.7 °F 58.5 °F 96% 29.95 in 10.0 mi Calm Calm - N/A   Scattered Clouds
9:54 PM 59.0 °F 58.1 °F 97% 29.95 in 10.0 mi Calm Calm - N/A   Clear
10:14 PM 57.2 °F 57.2 °F 100% 29.95 in 10.0 mi Calm Calm - N/A   Clear
10:34 PM 56.7 °F 56.7 °F 100% 29.96 in 10.0 mi Calm Calm - N/A   Clear
10:54 PM 55.0 °F 55.0 °F 100% 29.96 in 10.0 mi Calm Calm - N/A   Clear
11:15 PM 55.4 °F 55.4 °F 100% 29.96 in 5.0 mi Calm Calm - N/A   Clear
11:34 PM 55.0 °F 55.0 °F 100% 29.96 in 2.5 mi Calm Calm - N/A   Mostly Cloudy
11:54 PM 54.5 °F 54.5 °F 100% 29.96 in 4.0 mi Calm Calm - N/A   Scattered Clouds